WetterOnline ( https://www.wetteronline.at )

Wetter aktuell München

Aktuelles Wetter: München/Stadt (535m)

6-stündlich | Neueste Meldungen
Ortszeit Temperatur Wetter
Mi, 19.06. 8:00 20.3° C bedeckt
Mi, 19.06. 2:00 20.1° C bewölkt
Di, 18.06. 20:00 25.9° C fast wolkenlos
Di, 18.06. 14:00 27.1° C fast wolkenlos
Di, 18.06. 8:00 17.8° C wolkenlos
Di, 18.06. 2:00 18.0° C wolkig
Mo, 17.06. 20:00 23.8° C leicht bewölkt
Mo, 17.06. 14:00 24.0° C leicht bewölkt
Ortszeit Temperatur Wetter
Mi, 19.06. 8:10 20.6° C bedeckt
Mi, 19.06. 8:00 20.3° C bedeckt
Mi, 19.06. 7:50 20.3° C bedeckt
Mi, 19.06. 7:40 20.3° C bedeckt
Mi, 19.06. 7:30 19.8° C bedeckt
Mi, 19.06. 7:20 19.8° C bedeckt
Mi, 19.06. 7:00 19.4° C bedeckt
Mi, 19.06. 6:30 18.1° C bedeckt
Mi, 19.06. 6:00 17.8° C bedeckt
Mi, 19.06. 5:30 17.6° C bedeckt
Mi, 19.06. 5:00 17.4° C bedeckt
Ortszeit Relative Feuchte Sichtweite
Mi, 19.06. 8:00 56% 55 km
Mi, 19.06. 2:00 59% 60 km
Di, 18.06. 20:00 42% 45 km
Di, 18.06. 14:00 41% 45 km
Di, 18.06. 8:00 77% 35 km
Di, 18.06. 2:00 74% 40 km
Mo, 17.06. 20:00 49% 55 km
Mo, 17.06. 14:00 52% 45 km
Ortszeit Relative Feuchte Sichtweite
Mi, 19.06. 8:10 55% -
Mi, 19.06. 8:00 56% 55 km
Mi, 19.06. 7:50 56% -
Mi, 19.06. 7:40 57% -
Mi, 19.06. 7:30 58% 60 km
Mi, 19.06. 7:20 58% -
Mi, 19.06. 7:00 61% 60 km
Mi, 19.06. 6:30 73% 55 km
Mi, 19.06. 6:00 73% 55 km
Mi, 19.06. 5:30 74% 60 km
Mi, 19.06. 5:00 72% 60 km
Ortszeit Niederschlagsmenge Niederschlagsart
Mi, 19.06. 8:00 0.0 l/m2 in 12 Std. -
Mi, 19.06. 2:00 0.0 l/m2 in 6 Std. -
Di, 18.06. 20:00 0.0 l/m2 in 12 Std. -
Di, 18.06. 14:00 0.0 l/m2 in 6 Std. -
Di, 18.06. 8:00 0.0 l/m2 in 12 Std. -
Di, 18.06. 2:00 0.0 l/m2 in 6 Std. -
Mo, 17.06. 20:00 0.0 l/m2 in 12 Std. -
Mo, 17.06. 14:00 0.0 l/m2 in 6 Std. -
Ortszeit Niederschlagsmenge Niederschlagsart
Mi, 19.06. 8:10 keine Meldung -
Mi, 19.06. 8:00 0.0 l/m2 in 1 Std. -
Mi, 19.06. 7:50 keine Meldung -
Mi, 19.06. 7:40 keine Meldung -
Mi, 19.06. 7:30 0.0 l/m2 in 1 Std. -
Mi, 19.06. 7:20 keine Meldung -
Mi, 19.06. 7:00 0.0 l/m2 in 1 Std. -
Mi, 19.06. 6:30 0.0 l/m2 in 1 Std. -
Mi, 19.06. 6:00 0.0 l/m2 in 1 Std. -
Mi, 19.06. 5:30 0.0 l/m2 in 1 Std. -
Mi, 19.06. 5:00 0.0 l/m2 in 1 Std. -
Ortszeit Stärke Spitze Richtung
km/h Bft. km/h Grad Sektor
Mi, 19.06. 8:00 6 1 28 180° S
Mi, 19.06. 2:00 14 3 32 200° S
Di, 18.06. 20:00 7 2 25 340° N
Di, 18.06. 14:00 7 2 25 310° NW
Di, 18.06. 8:00 4 1 11 70° O
Di, 18.06. 2:00 9 2 22 90° O
Mo, 17.06. 20:00 11 2 32 70° O
Mo, 17.06. 14:00 17 3 33 60° NO
Ortszeit Stärke Spitze Richtung
km/h Bft. km/h Grad Sektor
Mi, 19.06. 8:10 7 2 - 180° S
Mi, 19.06. 8:00 6 1 13 180° S
Mi, 19.06. 7:50 6 1 - 180° S
Mi, 19.06. 7:40 7 2 - 180° S
Mi, 19.06. 7:30 7 2 13 180° S
Mi, 19.06. 7:20 7 2 - 180° S
Mi, 19.06. 7:00 9 2 15 180° S
Mi, 19.06. 6:30 4 1 7 170° S
Mi, 19.06. 6:00 4 1 7 100° O
Mi, 19.06. 5:30 4 1 7 110° O
Mi, 19.06. 5:00 0 0 14 - -
Ortszeit Untergrenze Bedeckung Gattung
total tief tief mittel hoch
Mi, 19.06. 8:00 4500 m 8/8 8/8 - - -
Mi, 19.06. 2:00 2700 m 8/8 6/8 - - -
Di, 18.06. 20:00 10500 m 2/8 0/8 - - -
Di, 18.06. 14:00 1440 m 1/8 1/8 - - -
Di, 18.06. 8:00 - 0/8 0/8 - - -
Di, 18.06. 2:00 8400 m 7/8 0/8 - - -
Mo, 17.06. 20:00 9000 m 8/8 0/8 - - -
Mo, 17.06. 14:00 1170 m 4/8 4/8 - - -
Ortszeit Bedeckungsgrad in Achtel und Wolkenuntergrenze
Mi, 19.06. 8:10 5(4500m) 8(5100m) 8(6600m)
Mi, 19.06. 8:00 8(4500m) 8(6600m) 8(7200m)
Mi, 19.06. 7:50 8(4500m) 8(6600m) 8(7200m)
Mi, 19.06. 7:40 8(4500m) 8(6600m)
Mi, 19.06. 7:30 8(4800m)
Mi, 19.06. 7:20 8(4800m)
Mi, 19.06. 7:00 8(5100m)
Mi, 19.06. 6:30 8(5100m)
Mi, 19.06. 6:00 3(3300m) 8(5100m)
Mi, 19.06. 5:30 8(3300m)
Mi, 19.06. 5:00 5(3300m) 8(6000m) 8(8700m)
Ortszeit Luftdruck NN (hPa) Tendenz (hPa in 3 Std.)
Mi, 19.06. 8:00 1012 0,0
Mi, 19.06. 2:00 1013 + 0,3
Di, 18.06. 20:00 1012 - 0,1
Di, 18.06. 14:00 1013 - 1,1
Di, 18.06. 8:00 1016 + 0,4
Di, 18.06. 2:00 1016 - 0,4
Mo, 17.06. 20:00 1015 - 0,5
Mo, 17.06. 14:00 1017 - 0,9
Ortszeit Luftdruck NN (hPa) Tendenz (hPa in 3 Std.)
Mi, 19.06. 8:10 1012 keine Meldung
Mi, 19.06. 8:00 1012 0,0
Mi, 19.06. 7:50 1012 keine Meldung
Mi, 19.06. 7:40 1012 keine Meldung
Mi, 19.06. 7:30 1012 - 0,3
Mi, 19.06. 7:20 1012 keine Meldung
Mi, 19.06. 7:00 1012 - 0,2
Mi, 19.06. 6:30 1013 - 0,2
Mi, 19.06. 6:00 1013 - 0,4
Mi, 19.06. 5:30 1013 - 0,1
Mi, 19.06. 5:00 1013 - 1,0
Ortszeit Schneehöhe (cm)
Mi, 19.06. 8:00 0
Mi, 19.06. 2:00 0
Di, 18.06. 20:00 0
Di, 18.06. 14:00 0
Di, 18.06. 8:00 0
Di, 18.06. 2:00 0
Mo, 17.06. 20:00 0
Mo, 17.06. 14:00 0
Ortszeit Schneehöhe (cm)
Mi, 19.06. 8:10 0
Mi, 19.06. 8:00 0
Mi, 19.06. 7:50 0
Mi, 19.06. 7:40 0
Mi, 19.06. 7:30 0
Mi, 19.06. 7:20 0
Mi, 19.06. 7:00 0
Mi, 19.06. 6:30 0
Mi, 19.06. 6:00 0
Mi, 19.06. 5:30 0
Mi, 19.06. 5:00 0
Link zu dieser Seite / Seite empfehlen

Das Wetter in ...